Weather in Vysokovo

Russia / Yaroslavl Oblast     57°14′27″N   38°44′54″E
temp.,
°C
wind,
m/s
gust,
m/s
humid.,
%
clouds,
%
prec.,
mm/h
press.,
hPa
HPBL,
m
8 may, sat
sat800:00+6sse2775100 0.0 1012125
03:00+5sse31279100 0.0 1012256
06:00+7sse31273100 0.0 1011416
09:00+9sse41273100 0.1 1010892
12:00+9sse51486100 0.9 10091378
15:00+8sse61593100 4.5 10071546
18:00+8se61594100 7.5 10051515
21:00+8se51296100 15.5 1003977
9 may, sun
sun900:00+7ese1199100 4.1 100134
03:00+7wnw2297100 4.6 100173
06:00+5nw51097100 1.4 1003660
09:00+1nw61497100 3.4 1006603
12:00+2nw51598100 1.5 1010701
15:00+7nw71285100 4.4 10121317
18:00+8nnw4127273 0.0 10151501
21:00+4wnw312885 0.1 1018293
10 may, mon
mon1000:00+2nw211911 0.0 1022240
03:000nw38870 0.0 1025148
06:00+2nw14781 0.0 1027102
09:00+9wnw23545 0.0 1028487
12:00+12w22435 0.0 10291254
15:00+14w234131 0.0 10291532
18:00+12s1258100 0.0 102959
21:00+9s225988 0.0 103016
11 may, tue
tue1100:00+7s227051 0.0 103114
03:00+5s22745 0.0 103213
06:00+7s12726 0.0 103264
09:00+13sse235144 0.0 1032537
12:00+16ese34465 0.0 10321014
15:00+17ese334944 0.0 10301082
18:00+17ese24605 0.0 1030651
21:00+10ese22865 0.0 103037
12 may, wed
wed1200:00+8ese22795 0.0 103025
03:00+7ese22848 0.0 103026
06:00+8e27800 0.0 1030162
09:00+15e46580 0.0 1029470
12:00+19ese46531 0.0 1028847
15:00+21e45532 0.0 10271112
18:00+20e376588 0.0 1026620
21:00+14e31087100 0.0 1026228